Location: Gro�wechsungen
(51.4926°N, 10.6901°E)
Time: 13:50:09
(UTC+00:00)

Cosmos 2082 Rocket - Pass Details

Date: 25 January 2021
Orbit: 832 x 854 km, 71.0° (Epoch: 04 March)

Event Time Altitude Azimuth Distance (km) Brightness Sun altitude
Rises 18:19:21 0° 330° (NNW) 3,438 5.7 -22.2°
Reaches altitude 10° 18:21:50 10° 332° (NNW) 2,497 5.0 -22.6°
Maximum altitude 18:27:35 76° 58° (ENE) 883 2.1 -23.5°
Enters shadow 18:29:14 48° 132° (SE) 1,108 2.5 -23.8°
